Tracking 27420 objects as of 10-Jun-2023
HD Live streaming from Space Station
objects crossing your sky now

STARLINK-1398

Track STARLINK-1398 now!
10-day predictions
STARLINK-1398 is classified as:


NORAD ID: 45699
Int'l Code: 2020-035AU
Perigee: 553.5 km
Apogee: 555.2 km
Inclination: 53.1 °
Period: 95.6 minutes
Semi major axis: 6925 km
RCS: Unknown
Launch date: June 4, 2020
Source: United States (US)
Launch site: AIR FORCE EASTERN TEST RANGE (AFETR)
Your satellite tracking list
Your tracking list is empty




NASA's NSSDC Master Catalog

Two Line Element Set (TLE):
1 45699U 20035AU  23161.21812140  .00000717  00000-0  67043-4 0  9994
2 45699  53.0517 221.3745 0001193 116.8483 243.2628 15.06396756167543
Source of the keplerian elements: AFSPC